Location: Unspecified
(35.6961°N, 0.0000°E)
Time: 02:47:27
(UTC+00:00)

S-56A Canister/Altair - Pass Details

Date: 02 October 2020
Orbit: 632 x 2500 km, 38.9° (Epoch: 20 October)

Event Time Altitude Azimuth Distance (km) Brightness Sun altitude
Rises 19:19:59 0° 291° (WNW) 6,021 13.6 -20.7°
Reaches altitude 10° 19:24:20 10° 288° (WNW) 4,848 12.7 -21.6°
Maximum altitude 19:36:48 51° 218° (SW) 2,142 9.8 -24.0°
Enters shadow 19:42:39 24° 154° (SSE) 2,706 9.9 -25.2°
